Location: Dampvalley
(47.9094°N, 6.1967°E)
Time: 04:02:57
(UTC+00:00)

NOSS 3-2 (A) - Visible Passes

Search period start: 15 June 2021 00:00
Search period end: 25 June 2021 00:00
Orbit: 776 x 1432 km, 63.4° (Epoch: 10 June)

Date Brightness Start Highest point End Pass type
(mag) Time Alt. Az. Time Alt. Az. Time Alt. Az.
15 Jun 6.2 00:38:15 10° NW 00:43:33 24° N 00:49:29 10° ENE visible
15 Jun 5.4 02:29:31 10° NW 02:36:21 44° NE 02:44:10 10° ESE visible
15 Jun 3.4 20:06:58 10° SW 20:12:35 86° SE 20:19:08 10° NE visible
15 Jun 5.5 21:58:59 10° W 22:04:17 31° NNW 22:10:21 10° NE visible
15 Jun 6.2 23:52:22 10° NW 23:57:24 22° N 00:03:02 10° NE visible
16 Jun 5.7 01:44:05 10° NW 01:50:29 35° NNE 01:57:46 10° E visible
16 Jun 5.0 21:12:56 10° WSW 21:18:24 40° NNW 21:24:46 10° NE visible
16 Jun 6.2 23:06:18 10° NW 23:11:15 22° N 23:16:48 10° NE visible
17 Jun 6.0 00:58:34 10° NW 01:04:31 29° NNE 01:11:13 10° E visible
17 Jun 4.6 02:49:25 10° NW 02:56:45 67° NE 03:05:09 10° SE visible
17 Jun 4.4 20:27:04 10° WSW 20:32:41 54° NW 20:39:14 10° NE visible
17 Jun 6.0 22:20:08 10° WNW 22:25:08 24° NNW 22:30:48 10° NE visible
18 Jun 6.1 00:12:57 10° NW 00:18:27 25° NNE 00:24:37 10° ENE visible
18 Jun 5.1 02:04:01 10° NW 02:11:03 50° NE 02:19:07 10° ESE visible
18 Jun 5.8 21:33:54 10° W 21:39:06 28° NNW 21:45:00 10° NE visible
18 Jun 6.2 23:27:09 10° NW 23:32:19 23° N 23:38:05 10° ENE visible
19 Jun 5.5 01:18:38 10° NW 01:25:15 39° NNE 01:32:50 10° E visible
19 Jun 5.4 20:47:47 10° W 20:53:10 35° NNW 20:59:22 10° NE visible
19 Jun 6.2 22:41:11 10° NW 22:46:10 22° N 22:51:44 10° NE visible
20 Jun 5.8 00:33:09 10° NW 00:39:21 32° NNE 00:46:21 10° E visible
20 Jun 4.3 02:23:56 10° NW 02:31:22 78° NE 02:39:52 10° SE visible
20 Jun 6.1 21:55:04 10° WNW 22:00:01 23° N 22:05:36 10° NE visible
20 Jun 6.0 23:47:36 10° NW 23:53:20 27° NNE 23:59:46 10° ENE visible
21 Jun 4.7 01:38:32 10° NW 01:45:44 58° NE 01:54:00 10° ESE visible
21 Jun 5.9 21:08:51 10° WNW 21:13:56 26° NNW 21:19:42 10° NE visible
21 Jun 6.1 23:01:54 10° NW 23:07:13 24° N 23:13:11 10° ENE visible
22 Jun 5.2 00:53:08 10° NW 01:00:00 44° NE 01:07:50 10° ESE visible
22 Jun 4.1 02:43:56 10° NW 02:51:24 67° SW 02:59:51 10° SSE visible
22 Jun 5.7 20:22:40 10° W 20:27:56 31° NNW 20:33:59 10° NE visible
22 Jun 6.2 22:16:02 10° NW 22:21:05 22° N 22:26:43 10° NE visible
23 Jun 5.5 00:07:43 10° NW 00:14:09 35° NNE 00:21:27 10° E visible
23 Jun 4.1 01:58:27 10° NW 02:05:57 90° NE 02:14:30 10° SE visible
23 Jun 6.1 21:29:59 10° NW 21:34:55 22° N 21:40:28 10° NE visible
23 Jun 5.8 23:22:13 10° NW 23:28:11 29° NNE 23:34:54 10° E visible
24 Jun 4.4 01:13:03 10° NW 01:20:23 68° NE 01:28:48 10° SE visible
24 Jun 6.0 20:43:48 10° WNW 20:48:48 24° NNW 20:54:27 10° NE visible
24 Jun 6.0 22:36:36 10° NW 22:42:07 25° NNE 22:48:19 10° ENE visible
